Regional Weather Roundup
Issued by NWS Cleveland, OH

Home | Current Version | Previous Version | Graphics & Text | Print | Product List | Glossary On
Versions: 1 2 3 4 5 6 7 8 9 10 11 12 13 14 15 16 17 18 19 20 21 22 23 24 25 26 27 28 29 30 31 32 33 34 35 36 37 38 39 40 41 42 43 44 45 46 47 48 49 50
000
ASUS41 KCLE 260600
RWRCLE
OHIO REGIONAL WEATHER ROUNDUP
NATIONAL WEATHER SERVICE WILMINGTON, OH
200 AM EDT TUE MAY 26 2015

NOTE: "FAIR" INDICATES FEW OR NO CLOUDS BELOW 12,000 FEET WITH NO
SIGNIFICANT WEATHER AND/OR OBSTRUCTIONS TO VISIBILITY.

OHZ001>008-015>018-024>027-034-035-043-044-260700-
   NORTHWEST OHIO

CITY           SKY/WX    TMP DP  RH WIND       PRES   REMARKS
DEFIANCE       PTCLDY    68  62  81 S9        30.05F
FINDLAY        CLOUDY    69  62  78 S12       30.07F
TOLEDO EXPRESS CLOUDY    69  62  78 SW8       30.05F
TOLEDO EXEC    CLOUDY    70  61  73 SW9       30.06F
LIMA           CLOUDY    68  63  84 S8        30.08F
$$

OHZ009>014-019>023-028>033-038-089-260700-
   NORTHEAST OHIO

CITY           SKY/WX    TMP DP  RH WIND       PRES   REMARKS
CLE-HOPKINS    MOCLDY    70  60  70 S9        30.11S
CLE-LAKEFRONT  MOCLDY    73  60  63 S14       30.07F
CUY CO. ARPT   NOT AVBL
LORAIN-ELYRIA  PTCLDY    68  61  78 SW9       30.09S
ASHTABULA      PTCLDY    70  60  70 SW8       30.11S
AKRON-CANTON   MOCLDY    68  59  73 SW3       30.14S
WOOSTER        NOT AVBL
MANSFIELD      PTCLDY    66  61  84 S8        30.13S
YOUNGSTOWN     MOCLDY    70  61  73 S7        30.14R
$$

OHZ042-051>053-060>062-070>072-077>081-260700-
  SOUTHWEST OHIO

CITY           SKY/WX    TMP DP  RH WIND       PRES   REMARKS
CINC-COVINGTON MOCLDY    67  63  87 S6        30.11F
CINC-LUNKEN    PTCLDY    67  64  90 S7        30.11F
HAMILTON       MOCLDY    70  64  81 SW5       30.11S
DAYTON         NOT AVBL
WRIGHT-PAT AFB MOCLDY    69  64  85 S8        30.10S
DAYTON GENERAL MOCLDY    69  63  81 SW8       30.10S
WILMINGTON     CLEAR     67  62  84 S5        30.12F
$$

OHZ036-037-039>041-045>050-054>059-063>069-073>076-082>088-260700-
  CENTRAL AND SOUTHEAST OHIO

CITY           SKY/WX    TMP DP  RH WIND       PRES   REMARKS
COLUMBUS       LGT RAIN  70  63  78 SE5       30.11F
OSU AIRPORT    MOCLDY    71  61  70 S8        30.11F
BOLTON FIELD   NOT AVBL
RICKENBACK AFB NOT AVBL
NEWARK         CLOUDY    67  64  90 CALM      30.12F
MARION         PTCLDY    65  60  84 S6        30.11F
LANCASTER      CLOUDY    68  65  90 SE5       30.13F
ZANESVILLE     LGT RAIN  67  63  87 CALM      30.16R
NEW PHILLY     CLOUDY    70  63  78 CALM      30.14S
$$


USA.gov is the U.S. government's official web portal to all federal, state and local government web resources and services.